When you browse on this site, cookies collect data to enhance your experience and personalize the content and advertising you see.
Visit our Privacy Policy to learn more. By continuing to use the site, you agree to this use of cookies and data.
  • In Hungary
  • List of Countries
  • For 7 days
  • Water Temperature
  • Weather Map
  • News
  • Weather Widgets
  • user-avatar
    Login

    Hourly Weather Kushata

    Today, 9 April, Thursday

    Time Temperature Precipitation Wind Pressure Humidity
    00:00 +1°C° 0.2 mm 4 mps 739 mmHg 76%
    01:00 +2°C° 0.2 mm 3 mps 740 mmHg 72%
    02:00 +2°C° 0.2 mm 3 mps 740 mmHg 68%
    03:00 +2°C° 0 mm 3 mps 740 mmHg 66%
    04:00 +2°C° 0 mm 3 mps 741 mmHg 63%
    05:00 +1°C° 0 mm 3 mps 741 mmHg 60%
    06:00 +1°C° 0 mm 3 mps 742 mmHg 60%
    07:00 +2°C° 0 mm 3 mps 742 mmHg 60%
    08:00 +2°C° 0 mm 3 mps 743 mmHg 60%
    09:00 +4°C° 0 mm 2 mps 743 mmHg 56%
    10:00 +5°C° 0 mm 2 mps 744 mmHg 53%
    11:00 +5°C° 0 mm 2 mps 744 mmHg 49%
    12:00 +6°C° 0 mm 2 mps 744 mmHg 43%
    13:00 +7°C° 0 mm 2 mps 744 mmHg 37%
    14:00 +8°C° 0 mm 2 mps 744 mmHg 31%
    15:00 +8°C° 0 mm 2 mps 744 mmHg 29%
    16:00 +8°C° 0 mm 2 mps 744 mmHg 26%
    17:00 +9°C° 0 mm 1 mps 744 mmHg 24%
    18:00 +8°C° 0 mm 2 mps 744 mmHg 28%
    19:00 +7°C° 0 mm 2 mps 744 mmHg 32%
    20:00 +6°C° 0 mm 2 mps 744 mmHg 37%
    21:00 +5°C° 0 mm 2 mps 744 mmHg 41%
    22:00 +5°C° 0 mm 2 mps 743 mmHg 45%
    23:00 +4°C° 0 mm 2 mps 743 mmHg 49%

    Tomorrow, 10 April, Friday

    Time Temperature Precipitation Wind Pressure Humidity
    00:00 +3°C° 0 mm 3 mps 743 mmHg 47%
    01:00 +3°C° 0 mm 3 mps 742 mmHg 45%
    02:00 +1°C° 0 mm 4 mps 741 mmHg 43%
    03:00 +1°C° 0 mm 4 mps 741 mmHg 45%
    04:00 +1°C° 0 mm 5 mps 741 mmHg 46%
    05:00 +1°C° 0 mm 5 mps 741 mmHg 48%
    06:00 +2°C° 0 mm 6 mps 741 mmHg 47%
    07:00 +2°C° 0 mm 8 mps 740 mmHg 45%
    08:00 +3°C° 0 mm 9 mps 740 mmHg 44%
    09:00 +5°C° 0 mm 9 mps 739 mmHg 43%
    10:00 +6°C° 0 mm 9 mps 739 mmHg 42%
    11:00 +7°C° 0 mm 9 mps 738 mmHg 40%
    12:00 +8°C° 0 mm 9 mps 738 mmHg 39%
    13:00 +10°C° 0 mm 9 mps 737 mmHg 39%
    14:00 +11°C° 0 mm 9 mps 737 mmHg 38%
    15:00 +11°C° 0 mm 9 mps 736 mmHg 38%
    16:00 +11°C° 0 mm 9 mps 735 mmHg 39%
    17:00 +11°C° 0 mm 9 mps 734 mmHg 39%
    18:00 +10°C° 0 mm 8 mps 734 mmHg 42%
    19:00 +9°C° 0 mm 8 mps 734 mmHg 44%
    20:00 +8°C° 0 mm 7 mps 733 mmHg 46%
    21:00 +8°C° 0 mm 6 mps 733 mmHg 49%
    22:00 +8°C° 0 mm 5 mps 733 mmHg 52%
    23:00 +8°C° 0 mm 4 mps 733 mmHg 54%

    Day after tomorrow, 11 April, Saturday

    Time Temperature Precipitation Wind Pressure Humidity
    00:00 +8°C° 0.1 mm 4 mps 733 mmHg 55%
    01:00 +8°C° 0.1 mm 4 mps 733 mmHg 56%
    02:00 +8°C° 0.1 mm 4 mps 732 mmHg 57%
    03:00 +9°C° 0.2 mm 3 mps 733 mmHg 61%
    04:00 +9°C° 0.2 mm 3 mps 733 mmHg 65%
    05:00 +8°C° 0.2 mm 2 mps 733 mmHg 68%
    06:00 +9°C° 0 mm 3 mps 733 mmHg 67%
    07:00 +10°C° 0 mm 3 mps 733 mmHg 67%
    08:00 +11°C° 0 mm 3 mps 733 mmHg 66%
    09:00 +13°C° 0 mm 3 mps 733 mmHg 59%
    10:00 +14°C° 0 mm 3 mps 733 mmHg 51%
    11:00 +17°C° 0 mm 3 mps 733 mmHg 44%
    12:00 +18°C° 0 mm 3 mps 732 mmHg 41%
    13:00 +19°C° 0 mm 3 mps 731 mmHg 37%
    14:00 +20°C° 0 mm 3 mps 731 mmHg 34%
    15:00 +20°C° 0 mm 3 mps 730 mmHg 35%
    16:00 +20°C° 0 mm 2 mps 730 mmHg 36%
    17:00 +20°C° 0 mm 2 mps 730 mmHg 37%
    18:00 +19°C° 0 mm 2 mps 730 mmHg 43%
    19:00 +18°C° 0 mm 2 mps 730 mmHg 48%
    20:00 +17°C° 0 mm 3 mps 730 mmHg 54%
    21:00 +17°C° 0.1 mm 3 mps 730 mmHg 65%
    22:00 +16°C° 0.1 mm 3 mps 730 mmHg 77%
    23:00 +14°C° 0.1 mm 3 mps 730 mmHg 88%

    12 April, Sunday

    Time Temperature Precipitation Wind Pressure Humidity
    00:00 +14°C° 0 mm 3 mps 730 mmHg 88%
    01:00 +15°C° 0 mm 2 mps 729 mmHg 88%
    02:00 +15°C° 0 mm 2 mps 729 mmHg 89%
    03:00 +15°C° 0.2 mm 2 mps 729 mmHg 87%
    04:00 +14°C° 0.2 mm 3 mps 729 mmHg 85%
    05:00 +14°C° 0.2 mm 3 mps 729 mmHg 84%
    06:00 +14°C° 1 mm 3 mps 729 mmHg 86%
    07:00 +14°C° 1 mm 4 mps 729 mmHg 89%
    08:00 +14°C° 1 mm 4 mps 729 mmHg 91%
    09:00 +14°C° 1.5 mm 4 mps 729 mmHg 92%
    10:00 +14°C° 1.5 mm 4 mps 728 mmHg 93%
    11:00 +14°C° 1.5 mm 4 mps 728 mmHg 93%
    12:00 +15°C° 0.7 mm 4 mps 728 mmHg 89%
    13:00 +17°C° 0.7 mm 5 mps 728 mmHg 85%
    14:00 +19°C° 0.7 mm 5 mps 728 mmHg 81%
    15:00 +19°C° 0.9 mm 4 mps 728 mmHg 81%
    16:00 +19°C° 0.9 mm 4 mps 728 mmHg 81%
    17:00 +19°C° 0.9 mm 3 mps 728 mmHg 81%
    18:00 +18°C° 2.1 mm 2 mps 728 mmHg 85%
    19:00 +17°C° 2.1 mm 2 mps 728 mmHg 90%
    20:00 +16°C° 2.1 mm 1 mps 728 mmHg 94%
    21:00 +16°C° 2 mm 2 mps 728 mmHg 94%
    22:00 +16°C° 2 mm 2 mps 729 mmHg 93%
    23:00 +16°C° 2 mm 3 mps 729 mmHg 93%

    13 April, Monday

    Time Temperature Precipitation Wind Pressure Humidity
    00:00 +14°C° 0.3 mm 3 mps 729 mmHg 87%
    01:00 +14°C° 0.3 mm 3 mps 729 mmHg 82%
    02:00 +14°C° 0.3 mm 3 mps 729 mmHg 76%
    03:00 +15°C° 0.2 mm 2 mps 730 mmHg 76%
    04:00 +14°C° 0.2 mm 2 mps 730 mmHg 76%
    05:00 +14°C° 0.2 mm 2 mps 731 mmHg 76%
    06:00 +14°C° 0.2 mm 2 mps 731 mmHg 76%
    07:00 +14°C° 0.2 mm 2 mps 732 mmHg 76%
    08:00 +13°C° 0.2 mm 2 mps 732 mmHg 75%
    09:00 +14°C° 0 mm 3 mps 732 mmHg 67%
    10:00 +16°C° 0 mm 3 mps 733 mmHg 58%
    11:00 +17°C° 0 mm 4 mps 733 mmHg 50%
    12:00 +16°C° 0 mm 5 mps 733 mmHg 49%
    13:00 +16°C° 0 mm 5 mps 733 mmHg 48%
    14:00 +16°C° 0 mm 6 mps 733 mmHg 48%
    15:00 +15°C° 0 mm 5 mps 733 mmHg 50%
    16:00 +15°C° 0 mm 5 mps 733 mmHg 52%
    17:00 +14°C° 0 mm 5 mps 733 mmHg 55%
    18:00 +13°C° 0.3 mm 4 mps 733 mmHg 63%
    19:00 +12°C° 0.3 mm 3 mps 734 mmHg 71%
    20:00 +12°C° 0.3 mm 2 mps 734 mmHg 79%
    21:00 +11°C° 0 mm 1 mps 735 mmHg 81%
    22:00 +11°C° 0 mm 1 mps 735 mmHg 83%
    23:00 +11°C° 0 mm 1 mps 736 mmHg 85%

    14 April, Tuesday

    Time Temperature Precipitation Wind Pressure Humidity
    00:00 +9°C° 0 mm 2 mps 736 mmHg 78%
    01:00 +8°C° 0 mm 3 mps 737 mmHg 71%
    02:00 +7°C° 0 mm 4 mps 737 mmHg 65%
    03:00 +7°C° 0 mm 3 mps 738 mmHg 64%
    04:00 +5°C° 0 mm 3 mps 738 mmHg 63%
    05:00 +6°C° 0 mm 2 mps 739 mmHg 62%
    06:00 +7°C° 0 mm 2 mps 739 mmHg 59%
    07:00 +7°C° 0 mm 2 mps 739 mmHg 55%
    08:00 +8°C° 0 mm 2 mps 740 mmHg 52%
    09:00 +9°C° 0 mm 2 mps 740 mmHg 47%
    10:00 +12°C° 0 mm 2 mps 740 mmHg 42%
    11:00 +13°C° 0 mm 2 mps 740 mmHg 37%
    12:00 +13°C° 0 mm 3 mps 740 mmHg 35%
    13:00 +13°C° 0 mm 3 mps 739 mmHg 32%
    14:00 +14°C° 0 mm 4 mps 739 mmHg 29%
    15:00 +14°C° 0 mm 4 mps 739 mmHg 29%
    16:00 +14°C° 0 mm 5 mps 738 mmHg 29%
    17:00 +14°C° 0 mm 6 mps 738 mmHg 28%
    18:00 +11°C° 0 mm 6 mps 738 mmHg 30%
    19:00 +10°C° 0 mm 6 mps 737 mmHg 32%
    20:00 +9°C° 0 mm 6 mps 737 mmHg 34%
    21:00 +9°C° 0 mm 6 mps 737 mmHg 33%
    22:00 +8°C° 0 mm 7 mps 737 mmHg 32%
    23:00 +8°C° 0 mm 7 mps 737 mmHg 31%
    Show more